sat.trackr.live / text

‹ back to catalog

SHIJIAN-6 03A (SJ-6 03A)

NORAD 33408 · 2008-053A

PAYLOAD ACTIVE UNKNOWN

§ Identity

Operator
Country
PRC
Launch date
2008-10-25
Launch site
TAISC
Launch vehicle
Mass (kg)
RCS (m²)
1.30

External: N2YO · Heavens-Above · Gunter

§ Orbital elements

Epoch: 2026-05-25T03:51:46.133568Z

Period
94.93 min
Inclination
97.8429°
Eccentricity
0.0012968
Mean motion
15.16896215 rev/d
Perigee alt
506.3 km
Apogee alt
524.2 km
Semi-major
6,893.4 km
B*
2.1206e-4
RAAN
177.6843°
Arg perigee
92.2991°
Mean anomaly
267.9726°
Rev number
95,947

§ Raw data

SHIJIAN-6 03A (SJ-6 03A)1 33408U 08053A   26145.16095062  .00004113  00000+0  21206-3 0  99932 33408  97.8429 177.6843 0012968  92.2991 267.9726 15.16896215959470

JSON: /api/v1/satellites/33408 · /tle

For live sub-satellite position, see the globe view (requires WebGL).

§ Visibility from observer

Set your observer location to see the next 7 days of passes ≥ 10°. The values pass through the URL so the page stays shareable.

No JS? Fill the form by hand. The geolocation button needs JavaScript.

§ Radio — SatNOGS DB

ModeDescriptionDownlinkUplink
BPSK Mode S 2.225 GHz

1 transmitter · refreshed weekly from db.satnogs.org